Change the Weather History Date:

Thursday, June 21, 2012

  Actual Average Record
Temperature  
Mean Temperature 63 °F 59 °F  
Max Temperature 80 °F 73 °F 93 °F (1919)
Min Temperature 46 °F 45 °F 32 °F (1983)
Degree Days  
Heating Degree Days 2 6  
Month to date heating degree days 223 166  
Since 1 June heating degree days 223 166  
Since 1 July heating degree days 7591 7989  
Cooling Degree Days 0 1  
Month to date cooling degree days 0 2  
Year to date cooling degree days 0 5  
Since 1 June cooling degree days 0 2  
Growing Degree Days 12 (Base 50)    
Moisture  
Dew Point 43 °F    
Average Humidity 57    
Maximum Humidity 93    
Minimum Humidity 20    
Precipitation  
Precipitation 0.00 in 0.08 in 0.70 in (1984)
Month to date precipitation 4.96 1.85  
Year to date precipitation 12.23 8.46  
Snow  
Snow 0.00 in - - ()
Month to date snowfall 0.0  
Year to date snowfall 25.1  
Since 1 July snowfall 31.4  
Snow Depth 0.00 in    
Sea Level Pressure  
Sea Level Pressure 29.96 in    
Wind  
Wind Speed 6 mph (NNE)    
Max Wind Speed 15 mph    
Max Gust Speed 20 mph    
Visibility 10 miles    
Events      
T = Trace of Precipitation, MM = Missing Value Source: NWS Daily Summary

Daily Weather History Graph

Daily Weather History Graph

Search for Another Location

Airport or City:

Trip Planner

Search our weather history database for the weather conditions in past years. The results will help you decide how hot, cold, wet, or windy it might be!

Date:

Astronomy

Jun. 21, 2012 Rise Set
Actual Time 5:36 AM MDT 9:41 PM MDT
Civil Twilight 4:54 AM MDT 10:23 PM MDT
Nautical Twilight 3:55 AM MDT 11:22 PM MDT
Astronomical Twilight 2:06 AM MDT 1:11 AM MDT
Moon 7:48 AM MDT (6/21) 10:54 PM MDT (6/21)
Length of Visible Light 17h 29m
Length of Day
16h 05m
Waxing Crescent, 4% of the Moon is Illuminated
Jun 21
Waxing Crescent
Jun 26
First Quarter
Jul 3
Full
Jul 10
Last Quarter
Jul 18
New

Hourly Weather History & Observations

Time (MDT) Temp. Dew Point Humidity Pressure Visibility Wind Dir Wind Speed Gust Speed Precip Events Conditions
12:55 AM 50.0 °F 46.9 °F 89% 30.08 in 10.0 mi WNW 3.5 mph - N/A   Clear
1:55 AM 48.9 °F 46.0 °F 90% 30.06 in 10.0 mi Calm Calm - N/A   Clear
2:55 AM 46.9 °F 45.0 °F 93% 30.06 in 10.0 mi Calm Calm - N/A   Clear
3:55 AM 46.0 °F 44.1 °F 93% 30.06 in 10.0 mi Calm Calm - N/A   Clear
4:55 AM 51.1 °F 44.1 °F 77% 30.04 in 10.0 mi NNE 12.7 mph - N/A   Clear
5:55 AM 50.0 °F 43.0 °F 77% 30.02 in 10.0 mi North 8.1 mph - N/A   Clear
6:55 AM 52.0 °F 43.0 °F 71% 30.02 in 10.0 mi NNE 10.4 mph - N/A   Clear
7:55 AM 55.9 °F 44.1 °F 64% 30.02 in 10.0 mi NNE 12.7 mph - N/A   Clear
8:55 AM 59.0 °F 45.0 °F 60% 30.03 in 10.0 mi NE 10.4 mph - N/A   Clear
9:55 AM 63.0 °F 44.1 °F 50% 30.03 in 10.0 mi NE 10.4 mph - N/A   Clear
10:55 AM 66.0 °F 45.0 °F 47% 30.02 in 10.0 mi Variable 5.8 mph - N/A   Clear
11:55 AM 68.0 °F 44.1 °F 42% 30.01 in 10.0 mi East 3.5 mph - N/A   Clear
12:55 PM 71.1 °F 44.1 °F 38% 29.99 in 10.0 mi Variable 4.6 mph - N/A   Clear
1:55 PM 73.0 °F 45.0 °F 37% 29.97 in 10.0 mi Calm Calm - N/A   Clear
2:55 PM 75.9 °F 42.1 °F 30% 29.95 in 10.0 mi Variable 3.5 mph - N/A   Clear
3:55 PM 77.0 °F 39.0 °F 25% 29.94 in 10.0 mi SE 3.5 mph - N/A   Clear
4:55 PM 77.0 °F 33.1 °F 20% 29.92 in 10.0 mi Calm Calm - N/A   Clear
5:55 PM 77.0 °F 41.0 °F 28% 29.90 in 10.0 mi NNE 4.6 mph - N/A   Clear
6:55 PM 78.1 °F 39.0 °F 25% 29.87 in 10.0 mi North 4.6 mph - N/A   Clear
7:55 PM 77.0 °F 46.0 °F 33% 29.85 in 10.0 mi North 4.6 mph - N/A   Clear
8:55 PM 70.0 °F 46.0 °F 42% 29.83 in 10.0 mi North 5.8 mph - N/A   Clear
9:55 PM 66.0 °F 43.0 °F 43% 29.83 in 10.0 mi North 9.2 mph - N/A   Clear
10:55 PM 63.0 °F 44.1 °F 50% 29.82 in 10.0 mi North 10.4 mph - N/A   Clear
11:55 PM 62.1 °F 46.0 °F 56% 29.81 in 10.0 mi North 9.2 mph - N/A   Clear